Time,TemperatureF,DewpointF,PressureIn,WindDirection,WindDirectionDegrees,WindSpeedMPH,WindSpeedGustMPH,Humidity,HourlyPrecipIn,Conditions,Clouds,dailyrainin,SoftwareType,DateUTC
2013-05-06 00:03:00,58.0,-99.9,30.02,NW,320,19.0,21.0,-999,-99.99,,,-99.99,,2013-05-06 05:03:00,
2013-05-06 00:12:00,58.0,-99.9,30.03,NNW,327,21.0,23.0,-999,-99.99,,,-99.99,,2013-05-06 05:12:00,
2013-05-06 00:22:00,58.0,-99.9,30.03,NNW,330,21.0,23.0,-999,-99.99,,,-99.99,,2013-05-06 05:22:00,
2013-05-06 00:32:00,57.0,-99.9,30.03,NW,323,21.0,23.0,-999,-99.99,,,-99.99,,2013-05-06 05:32:00,
2013-05-06 00:42:00,57.0,-99.9,30.03,NNW,327,20.0,23.0,-999,-99.99,,,-99.99,,2013-05-06 05:42:00,
2013-05-06 00:52:00,57.0,-99.9,30.03,NW,324,19.0,22.0,-999,-99.99,,,-99.99,,2013-05-06 05:52:00,
2013-05-06 01:02:00,57.0,-99.9,30.03,NW,323,19.0,22.0,-999,-99.99,,,-99.99,,2013-05-06 06:02:00,
2013-05-06 01:12:00,57.0,-99.9,30.03,NW,324,19.0,22.0,-999,-99.99,,,-99.99,,2013-05-06 06:12:00,
2013-05-06 01:22:00,57.0,-99.9,30.03,NW,321,20.0,23.0,-999,-99.99,,,-99.99,,2013-05-06 06:22:00,
2013-05-06 01:32:00,57.0,-99.9,30.03,NW,321,19.0,22.0,-999,-99.99,,,-99.99,,2013-05-06 06:32:00,
2013-05-06 01:42:00,57.0,-99.9,30.02,NW,326,18.0,21.0,-999,-99.99,,,-99.99,,2013-05-06 06:42:00,
2013-05-06 01:52:00,57.0,-99.9,30.02,NW,319,18.0,20.0,-999,-99.99,,,-99.99,,2013-05-06 06:52:00,
2013-05-06 02:01:00,57.0,-99.9,30.02,NW,317,18.0,21.0,-999,-99.99,,,-99.99,,2013-05-06 07:01:00,
2013-05-06 02:11:00,57.0,-99.9,30.02,NW,315,18.0,19.0,-999,-99.99,,,-99.99,,2013-05-06 07:11:00,
2013-05-06 02:22:00,57.0,-99.9,30.01,NW,314,16.0,19.0,-999,-99.99,,,-99.99,,2013-05-06 07:22:00,
2013-05-06 02:32:00,56.0,-99.9,30.01,NW,305,14.0,17.0,-999,-99.99,,,-99.99,,2013-05-06 07:32:00,
2013-05-06 02:42:00,56.0,-99.9,30.01,NW,305,14.0,17.0,-999,-99.99,,,-99.99,,2013-05-06 07:42:00,
2013-05-06 02:52:00,56.0,-99.9,30.01,NW,305,13.0,17.0,-999,-99.99,,,-99.99,,2013-05-06 07:52:00,
2013-05-06 03:02:00,57.0,-99.9,30.01,NW,305,13.0,16.0,-999,-99.99,,,-99.99,,2013-05-06 08:02:00,
2013-05-06 03:12:00,57.0,-99.9,30.01,NW,308,15.0,16.0,-999,-99.99,,,-99.99,,2013-05-06 08:12:00,
2013-05-06 03:22:00,57.0,-99.9,30.01,NW,309,13.0,16.0,-999,-99.99,,,-99.99,,2013-05-06 08:22:00,
2013-05-06 03:32:00,57.0,-99.9,30.01,NW,304,10.0,13.0,-999,-99.99,,,-99.99,,2013-05-06 08:32:00,
2013-05-06 03:42:00,57.0,-99.9,30.01,WNW,293,13.0,15.0,-999,-99.99,,,-99.99,,2013-05-06 08:42:00,
2013-05-06 03:52:00,57.0,-99.9,30.01,West,276,8.0,13.0,-999,-99.99,,,-99.99,,2013-05-06 08:52:00,
2013-05-06 04:02:00,57.0,-99.9,30.01,West,269,8.0,15.0,-999,-99.99,,,-99.99,,2013-05-06 09:02:00,
2013-05-06 04:11:00,57.0,-99.9,30.01,WNW,285,11.0,14.0,-999,-99.99,,,-99.99,,2013-05-06 09:11:00,
2013-05-06 04:22:00,58.0,-99.9,30.01,WNW,288,9.0,15.0,-999,-99.99,,,-99.99,,2013-05-06 09:22:00,
2013-05-06 04:33:00,57.0,-99.9,30.01,WNW,283,9.0,9.0,-999,-99.99,,,-99.99,,2013-05-06 09:33:00,
2013-05-06 04:43:00,57.0,-99.9,30.01,West,280,8.0,12.0,-999,-99.99,,,-99.99,,2013-05-06 09:43:00,
2013-05-06 04:53:00,57.0,-99.9,30.01,West,269,7.0,12.0,-999,-99.99,,,-99.99,,2013-05-06 09:53:00,
2013-05-06 05:03:00,58.0,-99.9,30.01,West,274,8.0,13.0,-999,-99.99,,,-99.99,,2013-05-06 10:03:00,
2013-05-06 05:12:00,58.0,-99.9,30.01,West,279,7.0,12.0,-999,-99.99,,,-99.99,,2013-05-06 10:12:00,
2013-05-06 05:22:00,57.0,-99.9,30.01,West,267,6.0,12.0,-999,-99.99,,,-99.99,,2013-05-06 10:22:00,
2013-05-06 05:33:00,57.0,-99.9,30.00,West,260,6.0,8.0,-999,-99.99,,,-99.99,,2013-05-06 10:33:00,
2013-05-06 05:42:00,57.0,-99.9,30.00,WSW,249,6.0,9.0,-999,-99.99,,,-99.99,,2013-05-06 10:42:00,
2013-05-06 05:52:00,57.0,-99.9,30.00,West,261,6.0,8.0,-999,-99.99,,,-99.99,,2013-05-06 10:52:00,
2013-05-06 06:02:00,57.0,-99.9,30.01,WNW,283,7.0,9.0,-999,-99.99,,,-99.99,,2013-05-06 11:02:00,
2013-05-06 06:12:00,57.0,-99.9,30.01,West,271,7.0,11.0,-999,-99.99,,,-99.99,,2013-05-06 11:12:00,
2013-05-06 06:22:00,57.0,-99.9,30.01,West,280,6.0,9.0,-999,-99.99,,,-99.99,,2013-05-06 11:22:00,
2013-05-06 06:32:00,59.0,-99.9,30.02,WNW,299,14.0,15.0,-999,-99.99,,,-99.99,,2013-05-06 11:32:00,
2013-05-06 06:42:00,59.0,-99.9,30.02,WNW,299,15.0,20.0,-999,-99.99,,,-99.99,,2013-05-06 11:42:00,
2013-05-06 06:52:00,59.0,-99.9,30.03,WNW,292,14.0,19.0,-999,-99.99,,,-99.99,,2013-05-06 11:52:00,
2013-05-06 07:02:00,59.0,-99.9,30.03,WNW,283,11.0,16.0,-999,-99.99,,,-99.99,,2013-05-06 12:02:00,
2013-05-06 07:12:00,59.0,-99.9,30.03,West,274,10.0,14.0,-999,-99.99,,,-99.99,,2013-05-06 12:12:00,
2013-05-06 07:22:00,59.0,-99.9,30.03,West,275,9.0,14.0,-999,-99.99,,,-99.99,,2013-05-06 12:22:00,
2013-05-06 07:32:00,60.0,-99.9,30.04,West,269,8.0,11.0,-999,-99.99,,,-99.99,,2013-05-06 12:32:00,
2013-05-06 07:42:00,60.0,-99.9,30.04,West,269,8.0,11.0,-999,-99.99,,,-99.99,,2013-05-06 12:42:00,
2013-05-06 07:52:00,60.0,-99.9,30.04,West,273,9.0,11.0,-999,-99.99,,,-99.99,,2013-05-06 12:52:00,
2013-05-06 08:01:00,61.0,-99.9,30.04,West,271,7.0,11.0,-999,-99.99,,,-99.99,,2013-05-06 13:01:00,
2013-05-06 08:11:00,61.0,-99.9,30.04,West,260,8.0,11.0,-999,-99.99,,,-99.99,,2013-05-06 13:11:00,
2013-05-06 08:22:00,62.0,-99.9,30.04,West,259,8.0,13.0,-999,-99.99,,,-99.99,,2013-05-06 13:22:00,
2013-05-06 08:32:00,62.0,-99.9,30.04,West,274,8.0,13.0,-999,-99.99,,,-99.99,,2013-05-06 13:32:00,
2013-05-06 08:42:00,62.0,-99.9,30.04,West,272,11.0,14.0,-999,-99.99,,,-99.99,,2013-05-06 13:42:00,
2013-05-06 08:52:00,62.0,-99.9,30.04,WNW,285,11.0,16.0,-999,-99.99,,,-99.99,,2013-05-06 13:52:00,
2013-05-06 09:02:00,62.0,-99.9,30.04,West,276,13.0,16.0,-999,-99.99,,,-99.99,,2013-05-06 14:02:00,
2013-05-06 09:11:00,62.0,-99.9,30.04,West,261,11.0,20.0,-999,-99.99,,,-99.99,,2013-05-06 14:11:00,
2013-05-06 09:21:00,63.0,-99.9,30.05,WNW,286,13.0,17.0,-999,-99.99,,,-99.99,,2013-05-06 14:21:00,
2013-05-06 09:32:00,63.0,-99.9,30.05,West,273,11.0,19.0,-999,-99.99,,,-99.99,,2013-05-06 14:32:00,
2013-05-06 09:42:00,62.0,-99.9,30.05,WNW,295,18.0,20.0,-999,-99.99,,,-99.99,,2013-05-06 14:42:00,
2013-05-06 09:52:00,63.0,-99.9,30.05,West,280,13.0,19.0,-999,-99.99,,,-99.99,,2013-05-06 14:52:00,
2013-05-06 10:01:00,62.0,-99.9,30.05,WNW,298,16.0,17.0,-999,-99.99,,,-99.99,,2013-05-06 15:01:00,
2013-05-06 10:11:00,63.0,-99.9,30.05,West,275,11.0,20.0,-999,-99.99,,,-99.99,,2013-05-06 15:11:00,
2013-05-06 10:22:00,62.0,-99.9,30.05,WNW,296,15.0,19.0,-999,-99.99,,,-99.99,,2013-05-06 15:22:00,
2013-05-06 10:33:00,63.0,-99.9,30.05,WNW,288,13.0,20.0,-999,-99.99,,,-99.99,,2013-05-06 15:33:00,
2013-05-06 10:43:00,64.0,-99.9,30.05,West,260,11.0,17.0,-999,-99.99,,,-99.99,,2013-05-06 15:43:00,
2013-05-06 10:53:00,64.0,-99.9,30.05,WNW,290,14.0,20.0,-999,-99.99,,,-99.99,,2013-05-06 15:53:00,
2013-05-06 11:03:00,65.0,-99.9,30.05,West,278,13.0,22.0,-999,-99.99,,,-99.99,,2013-05-06 16:03:00,
2013-05-06 11:13:00,64.0,-99.9,30.05,WNW,285,17.0,20.0,-999,-99.99,,,-99.99,,2013-05-06 16:13:00,
2013-05-06 11:23:00,65.0,-99.9,30.05,West,267,11.0,19.0,-999,-99.99,,,-99.99,,2013-05-06 16:23:00,
2013-05-06 11:33:00,65.0,-99.9,30.05,West,277,10.0,21.0,-999,-99.99,,,-99.99,,2013-05-06 16:33:00,
2013-05-06 11:42:00,65.0,-99.9,30.05,West,279,17.0,22.0,-999,-99.99,,,-99.99,,2013-05-06 16:42:00,
2013-05-06 11:52:00,65.0,-99.9,30.04,West,272,15.0,21.0,-999,-99.99,,,-99.99,,2013-05-06 16:52:00,
2013-05-06 12:03:00,65.0,-99.9,30.04,WSW,258,12.0,25.0,-999,-99.99,,,-99.99,,2013-05-06 17:03:00,
2013-05-06 12:12:00,65.0,-99.9,30.04,West,280,16.0,24.0,-999,-99.99,,,-99.99,,2013-05-06 17:12:00,
2013-05-06 12:23:00,65.0,-99.9,30.04,West,269,12.0,23.0,-999,-99.99,,,-99.99,,2013-05-06 17:23:00,
2013-05-06 12:32:00,65.0,-99.9,30.04,West,272,16.0,20.0,-999,-99.99,,,-99.99,,2013-05-06 17:32:00,
2013-05-06 12:42:00,65.0,-99.9,30.03,West,271,14.0,22.0,-999,-99.99,,,-99.99,,2013-05-06 17:42:00,
2013-05-06 12:52:00,65.0,-99.9,30.03,WSW,244,14.0,21.0,-999,-99.99,,,-99.99,,2013-05-06 17:52:00,
2013-05-06 13:02:00,66.0,-99.9,30.02,WSW,253,13.0,21.0,-999,-99.99,,,-99.99,,2013-05-06 18:02:00,
2013-05-06 13:12:00,65.0,-99.9,30.02,West,259,13.0,23.0,-999,-99.99,,,-99.99,,2013-05-06 18:12:00,
2013-05-06 13:22:00,66.0,-99.9,30.02,West,262,13.0,24.0,-999,-99.99,,,-99.99,,2013-05-06 18:22:00,
2013-05-06 13:32:00,65.0,-99.9,30.02,WSW,245,15.0,23.0,-999,-99.99,,,-99.99,,2013-05-06 18:32:00,
2013-05-06 13:43:00,65.0,-99.9,30.02,WSW,251,15.0,19.0,-999,-99.99,,,-99.99,,2013-05-06 18:43:00,
2013-05-06 13:52:00,65.0,-99.9,30.01,WSW,247,15.0,21.0,-999,-99.99,,,-99.99,,2013-05-06 18:52:00,
2013-05-06 14:01:00,66.0,-99.9,30.01,WSW,247,15.0,22.0,-999,-99.99,,,-99.99,,2013-05-06 19:01:00,
2013-05-06 14:11:00,66.0,-99.9,30.01,WSW,251,13.0,21.0,-999,-99.99,,,-99.99,,2013-05-06 19:11:00,
2013-05-06 14:22:00,67.0,-99.9,30.00,WSW,243,13.0,21.0,-999,-99.99,,,-99.99,,2013-05-06 19:22:00,
2013-05-06 14:32:00,66.0,-99.9,30.00,WSW,239,15.0,20.0,-999,-99.99,,,-99.99,,2013-05-06 19:32:00,
2013-05-06 14:42:00,66.0,-99.9,30.00,WSW,237,15.0,20.0,-999,-99.99,,,-99.99,,2013-05-06 19:42:00,
2013-05-06 14:52:00,66.0,-99.9,30.00,SW,234,13.0,21.0,-999,-99.99,,,-99.99,,2013-05-06 19:52:00,
2013-05-06 15:02:00,66.0,-99.9,29.99,WSW,248,16.0,21.0,-999,-99.99,,,-99.99,,2013-05-06 20:02:00,
2013-05-06 15:11:00,67.0,-99.9,29.99,SW,236,16.0,23.0,-999,-99.99,,,-99.99,,2013-05-06 20:11:00,
2013-05-06 15:22:00,67.0,-99.9,29.99,SW,232,15.0,22.0,-999,-99.99,,,-99.99,,2013-05-06 20:22:00,
2013-05-06 15:32:00,67.0,-99.9,29.98,SW,233,14.0,22.0,-999,-99.99,,,-99.99,,2013-05-06 20:32:00,
2013-05-06 15:42:00,67.0,-99.9,29.98,WSW,237,14.0,23.0,-999,-99.99,,,-99.99,,2013-05-06 20:42:00,
2013-05-06 15:52:00,67.0,-99.9,29.97,WSW,244,15.0,24.0,-999,-99.99,,,-99.99,,2013-05-06 20:52:00,
2013-05-06 16:01:00,67.0,-99.9,29.97,SW,230,14.0,21.0,-999,-99.99,,,-99.99,,2013-05-06 21:01:00,
2013-05-06 16:11:00,67.0,-99.9,29.96,SW,234,13.0,21.0,-999,-99.99,,,-99.99,,2013-05-06 21:11:00,
2013-05-06 16:22:00,68.0,-99.9,29.96,WSW,239,14.0,23.0,-999,-99.99,,,-99.99,,2013-05-06 21:22:00,
2013-05-06 16:33:00,67.0,-99.9,29.96,SW,234,15.0,23.0,-999,-99.99,,,-99.99,,2013-05-06 21:33:00,
2013-05-06 16:43:00,67.0,-99.9,29.96,WSW,244,14.0,22.0,-999,-99.99,,,-99.99,,2013-05-06 21:43:00,
2013-05-06 16:53:00,67.0,-99.9,29.96,WSW,244,15.0,22.0,-999,-99.99,,,-99.99,,2013-05-06 21:53:00,
2013-05-06 17:03:00,67.0,-99.9,29.96,WSW,241,17.0,22.0,-999,-99.99,,,-99.99,,2013-05-06 22:03:00,
2013-05-06 17:12:00,67.0,-99.9,29.96,WSW,242,17.0,23.0,-999,-99.99,,,-99.99,,2013-05-06 22:12:00,
2013-05-06 17:22:00,67.0,-99.9,29.96,WSW,239,15.0,21.0,-999,-99.99,,,-99.99,,2013-05-06 22:22:00,
2013-05-06 17:33:00,67.0,-99.9,29.96,WSW,245,15.0,23.0,-999,-99.99,,,-99.99,,2013-05-06 22:33:00,
2013-05-06 17:45:00,67.0,-99.9,29.96,WSW,247,13.0,21.0,-999,-99.99,,,-99.99,,2013-05-06 22:45:00,
2013-05-06 17:53:00,67.0,-99.9,29.96,WSW,245,16.0,22.0,-999,-99.99,,,-99.99,,2013-05-06 22:53:00,
2013-05-06 18:03:00,67.0,-99.9,29.96,WSW,237,14.0,24.0,-999,-99.99,,,-99.99,,2013-05-06 23:03:00,
2013-05-06 18:12:00,67.0,-99.9,29.96,SW,233,14.0,20.0,-999,-99.99,,,-99.99,,2013-05-06 23:12:00,
2013-05-06 18:22:00,67.0,-99.9,29.96,SW,233,13.0,22.0,-999,-99.99,,,-99.99,,2013-05-06 23:22:00,
2013-05-06 18:32:00,67.0,-99.9,29.96,WSW,243,17.0,23.0,-999,-99.99,,,-99.99,,2013-05-06 23:32:00,
2013-05-06 18:42:00,67.0,-99.9,29.96,WSW,237,14.0,22.0,-999,-99.99,,,-99.99,,2013-05-06 23:42:00,
2013-05-06 18:52:00,67.0,-99.9,29.96,WSW,252,15.0,20.0,-999,-99.99,,,-99.99,,2013-05-06 23:52:00,
2013-05-06 19:01:00,67.0,-99.9,29.96,WSW,242,13.0,20.0,-999,-99.99,,,-99.99,,2013-05-07 00:01:00,
2013-05-06 19:12:00,67.0,-99.9,29.96,WSW,241,14.0,23.0,-999,-99.99,,,-99.99,,2013-05-07 00:12:00,
2013-05-06 19:22:00,67.0,-99.9,29.96,WSW,241,15.0,21.0,-999,-99.99,,,-99.99,,2013-05-07 00:22:00,
2013-05-06 19:32:00,67.0,-99.9,29.96,WSW,237,16.0,20.0,-999,-99.99,,,-99.99,,2013-05-07 00:32:00,
2013-05-06 19:42:00,67.0,-99.9,29.96,WSW,241,17.0,21.0,-999,-99.99,,,-99.99,,2013-05-07 00:42:00,
2013-05-06 19:52:00,67.0,-99.9,29.96,SW,231,13.0,21.0,-999,-99.99,,,-99.99,,2013-05-07 00:52:00,
2013-05-06 20:01:00,67.0,-99.9,29.96,SW,231,13.0,23.0,-999,-99.99,,,-99.99,,2013-05-07 01:01:00,
2013-05-06 20:11:00,68.0,-99.9,29.96,WSW,238,13.0,20.0,-999,-99.99,,,-99.99,,2013-05-07 01:11:00,
2013-05-06 20:21:00,67.0,-99.9,29.96,SW,232,13.0,24.0,-999,-99.99,,,-99.99,,2013-05-07 01:21:00,
2013-05-06 20:32:00,68.0,-99.9,29.97,WSW,239,14.0,22.0,-999,-99.99,,,-99.99,,2013-05-07 01:32:00,
2013-05-06 20:42:00,68.0,-99.9,29.97,WSW,252,13.0,22.0,-999,-99.99,,,-99.99,,2013-05-07 01:42:00,
2013-05-06 20:53:00,68.0,-99.9,29.97,WSW,240,12.0,18.0,-999,-99.99,,,-99.99,,2013-05-07 01:53:00,
2013-05-06 21:02:00,68.0,-99.9,29.97,SW,236,15.0,21.0,-999,-99.99,,,-99.99,,2013-05-07 02:02:00,
2013-05-06 21:11:00,68.0,-99.9,29.97,WSW,242,14.0,21.0,-999,-99.99,,,-99.99,,2013-05-07 02:11:00,
2013-05-06 21:22:00,67.0,-99.9,29.97,SW,234,13.0,22.0,-999,-99.99,,,-99.99,,2013-05-07 02:22:00,
2013-05-06 21:32:00,68.0,-99.9,29.98,WSW,250,11.0,17.0,-999,-99.99,,,-99.99,,2013-05-07 02:32:00,
2013-05-06 21:42:00,68.0,-99.9,29.98,WSW,245,12.0,17.0,-999,-99.99,,,-99.99,,2013-05-07 02:42:00,
2013-05-06 21:52:00,68.0,-99.9,29.98,WSW,247,11.0,19.0,-999,-99.99,,,-99.99,,2013-05-07 02:52:00,
2013-05-06 22:02:00,68.0,-99.9,29.99,WSW,249,13.0,19.0,-999,-99.99,,,-99.99,,2013-05-07 03:02:00,
2013-05-06 22:12:00,68.0,-99.9,29.99,WSW,251,11.0,18.0,-999,-99.99,,,-99.99,,2013-05-07 03:12:00,
2013-05-06 22:22:00,68.0,-99.9,29.99,WSW,254,13.0,21.0,-999,-99.99,,,-99.99,,2013-05-07 03:22:00,
2013-05-06 22:33:00,68.0,-99.9,30.01,WNW,298,14.0,18.0,-999,-99.99,,,-99.99,,2013-05-07 03:33:00,
2013-05-06 22:43:00,68.0,-99.9,30.01,NW,308,13.0,14.0,-999,-99.99,,,-99.99,,2013-05-07 03:43:00,
2013-05-06 22:53:00,67.0,-99.9,30.01,NW,307,10.0,13.0,-999,-99.99,,,-99.99,,2013-05-07 03:53:00,
2013-05-06 23:03:00,67.0,-99.9,30.01,NW,316,11.0,16.0,-999,-99.99,,,-99.99,,2013-05-07 04:03:00,
2013-05-06 23:12:00,67.0,-99.9,30.01,NW,322,14.0,15.0,-999,-99.99,,,-99.99,,2013-05-07 04:12:00,
2013-05-06 23:23:00,66.0,-99.9,30.01,NW,319,11.0,12.0,-999,-99.99,,,-99.99,,2013-05-07 04:23:00,
2013-05-06 23:33:00,66.0,-99.9,30.01,NW,322,11.0,13.0,-999,-99.99,,,-99.99,,2013-05-07 04:33:00,
2013-05-06 23:42:00,66.0,-99.9,30.01,NNW,328,10.0,12.0,-999,-99.99,,,-99.99,,2013-05-07 04:42:00,
2013-05-06 23:53:00,66.0,-99.9,30.01,NNW,329,9.0,11.0,-999,-99.99,,,-99.99,,2013-05-07 04:53:00,